Dewpoint
47 48 50 52 54 55 56 57 57 58 59 60 61 62 62 63 65 66 66 67 67 67 68 69 70 70 70 69 69 70 70 70 70 70 70 70 70 70 71 71 71 72 73 73 73 73 73 73 73 73 72 72 72 70 69 69 68 68 66 66 66 66 65
45 46 47 50 52 54 55 57 58 58 58 60 61 62 62 63 64 65 66 67 67 67 68 69 70 70 70 70 70 70 70 70 70 70 70 70 71 71 71 71 71 71 72 73 73 73 73 72 72 72 72 72 71 70 69 69 68 67 66 66 65 65 65
44 45 46 47 50 53 54 56 57 58 58 59 60 61 62 63 64 65 66 67 67 67 68 68 70 70 70 70 70 70 70 70 70 70 70 70 70 70 71 71 71 71 72 72 73 72 73 72 72 72 71 71 70 70 70 69 68 67 66 66 65 65 65
44 44 46 47 49 51 53 54 56 57 57 58 59 61 62 63 64 65 66 67 67 67 67 68 69 70 70 70 70 70 70 70 70 70 70 70 71 71 71 71 71 71 71 72 72 72 72 72 71 71 72 70 70 69 69 69 68 67 66 66 65 65 65
43 44 45 46 47 49 51 53 55 57 57 57 59 61 62 63 64 65 65 67 67 67 67 68 69 69 70 70 70 70 70 70 70 70 70 71 71 71 71 71 71 71 71 71 71 71 71 71 70 70 71 70 70 69 69 69 68 67 66 65 65 65 64
44 44 45 45 46 47 49 51 53 55 56 57 58 60 62 62 63 64 65 66 67 67 68 68 69 69 69 70 70 70 71 71 71 71 71 71 71 71 71 71 71 71 71 71 71 71 71 71 70 70 70 70 69 69 68 68 68 67 66 65 64 64 64
46 45 45 46 46 47 48 49 51 53 56 57 58 59 61 62 63 64 64 65 67 67 68 68 69 69 70 70 70 70 70 71 71 71 71 71 71 71 71 71 71 71 71 71 71 71 70 70 70 70 70 69 69 69 68 68 67 67 65 65 64 64 64
46 46 46 46 46 47 47 49 49 51 54 57 57 58 60 62 63 63 64 65 66 67 68 68 69 70 70 70 70 70 70 70 71 71 71 71 72 71 71 71 71 71 71 71 71 71 70 70 70 70 69 69 69 69 68 68 67 67 65 64 64 63 64
46 47 47 46 47 47 47 49 50 50 52 55 57 58 60 62 62 63 64 64 66 67 67 68 69 69 70 70 70 70 70 70 71 71 71 71 71 71 71 71 71 71 71 71 71 71 70 70 70 69 69 69 69 68 68 68 67 67 66 65 64 63 63
45 47 49 48 47 47 48 49 50 51 53 55 57 58 60 61 62 63 64 64 65 66 67 68 69 69 70 70 70 70 70 70 71 71 71 71 71 71 72 71 71 72 71 71 71 70 71 70 70 70 69 69 69 68 68 68 68 67 66 65 64 63 63
46 47 48 49 49 48 49 49 51 53 54 55 57 58 60 61 62 63 63 64 65 66 67 68 69 69 70 70 70 70 71 70 70 70 71 71 71 71 71 71 71 71 71 71 71 70 70 70 70 70 69 69 69 69 68 68 68 67 66 65 64 64 63
46 47 48 49 50 49 49 50 52 54 55 56 56 57 60 61 62 63 63 64 65 66 67 68 69 69 69 70 70 70 70 71 71 71 71 71 71 71 71 71 71 71 71 71 70 71 70 70 70 70 69 69 69 69 69 68 68 67 67 65 65 64 63
45 47 48 47 50 50 51 52 53 54 56 56 56 57 59 61 62 63 64 64 65 66 67 68 69 69 69 69 70 70 70 71 71 71 71 71 71 71 71 71 71 71 71 71 71 70 70 70 70 70 69 69 69 69 69 68 68 67 67 66 65 64 64
53 47 47 48 49 50 51 52 52 54 56 56 57 58 59 61 62 63 63 64 64 66 67 68 69 69 69 70 70 70 70 71 71 71 71 71 72 72 71 71 71 71 71 71 71 70 70 70 70 70 70 69 69 69 69 68 68 67 67 66 65 65 64
43 45 47 48 49 51 51 51 53 54 56 57 58 58 59 61 62 63 64 64 65 66 67 68 69 69 69 70 70 70 70 71 71 71 72 72 72 72 72 72 72 72 71 71 71 71 71 71 71 70 70 70 69 69 69 68 68 68 67 66 66 65 64
40 43 46 47 48 49 51 52 53 54 56 58 58 59 60 61 62 63 63 64 64 65 67 68 68 69 69 69 70 70 71 71 71 71 72 72 72 72 72 72 72 72 71 71 71 71 71 71 71 71 70 70 69 69 69 68 68 66 61 63 66 65 65
40 41 43 46 49 50 51 52 54 55 56 58 59 59 60 61 62 63 63 63 64 65 66 68 68 69 69 69 70 70 71 71 71 71 71 72 72 72 72 72 72 72 71 71 71 71 71 71 70 70 70 70 70 69 69 69 68 62 61 61 62 65 65
43 43 43 46 49 51 52 53 54 56 56 57 58 60 61 62 62 63 63 63 64 65 66 67 68 68 69 69 70 70 71 71 71 71 71 72 72 72 72 72 72 71 71 71 71 71 71 71 71 70 70 70 70 69 69 69 64 61 60 61 61 62 66
45 45 45 47 50 52 51 52 54 56 56 57 57 59 60 62 62 63 63 64 64 65 66 67 68 68 69 69 70 70 71 71 71 71 71 71 72 72 72 72 72 71 71 71 71 71 71 71 71 70 70 70 70 70 70 69 64 61 60 60 60 61 63
46 46 46 47 49 50 51 52 54 55 56 57 58 58 60 62 62 63 63 64 64 65 66 67 67 68 68 69 70 70 71 71 71 71 71 72 72 72 72 72 72 71 71 71 71 71 71 70 70 70 70 70 70 70 70 70 64 60 59 59 59 60 62
54 52 48 48 49 50 52 52 53 55 57 58 58 59 59 61 62 63 63 64 64 65 66 66 67 68 68 69 70 70 71 71 71 71 71 72 72 72 72 72 72 72 71 71 71 70 70 70 70 70 70 70 70 70 70 70 63 59 58 58 58 59 61
52 54 53 51 50 51 53 53 54 55 57 59 60 60 60 60 61 62 63 64 64 64 65 66 67 67 68 69 69 70 70 71 71 71 71 71 72 72 71 72 72 71 71 71 71 70 70 70 70 70 70 70 70 70 69 70 62 59 58 57 57 59 63
58 47 50 54 54 53 54 54 54 55 58 59 60 60 60 60 61 62 63 63 64 64 64 65 66 67 68 68 69 70 70 71 71 71 71 71 71 71 71 71 71 71 71 71 70 70 70 70 70 70 70 70 70 69 69 70 63 58 57 57 57 58 64
65 63 59 55 54 56 58 58 57 58 58 58 59 60 61 61 61 62 63 64 64 64 64 65 65 66 67 68 69 69 70 71 71 71 71 71 71 71 71 71 72 71 71 71 70 70 70 70 70 70 70 70 70 70 70 70 62 56 56 56 56 59 65
65 66 65 65 65 64 61 60 60 59 60 59 59 60 61 61 62 63 63 64 64 64 64 64 65 66 66 67 68 69 70 70 71 71 71 71 71 71 71 71 71 71 71 71 71 70 70 70 70 70 71 70 70 66 69 70 63 55 56 55 55 60 65
64 65 66 66 66 66 66 66 62 61 60 60 59 60 62 62 62 64 64 64 64 64 64 64 65 65 66 67 68 69 69 70 71 71 71 71 71 71 71 71 71 71 71 71 71 70 70 70 70 70 70 71 70 70 70 69 66 59 55 54 54 57 66
64 65 65 65 66 67 66 67 64 62 61 61 63 64 63 63 63 63 64 65 65 64 64 65 65 65 66 66 67 68 69 70 70 70 71 71 71 71 71 71 71 71 71 71 71 71 70 70 70 70 70 70 70 70 69 69 67 61 53 53 53 55 61
64 64 65 66 67 66 67 66 66 66 65 65 66 67 66 65 64 63 64 64 64 64 64 65 65 65 65 66 66 68 69 69 70 70 71 71 71 71 71 71 71 71 71 71 71 70 70 70 70 70 68 68 68 68 67 65 63 63 54 53 52 54 59
64 64 64 64 65 66 67 66 67 67 68 69 70 68 68 67 66 65 64 64 64 65 66 66 66 66 66 66 66 67 68 69 69 70 70 71 71 71 70 71 71 71 71 71 71 70 70 69 68 67 66 65 64 64 63 63 62 58 57 52 52 53 56
64 64 65 65 65 65 66 66 66 67 67 67 68 68 68 68 67 67 67 66 68 69 68 67 66 66 66 65 65 66 67 68 69 69 70 70 71 71 71 71 71 71 71 71 70 70 68 67 66 66 65 64 62 62 61 61 61 57 55 55 52 53 54
64 64 65 64 64 65 65 65 65 65 66 67 67 67 67 67 68 67 67 68 69 70 69 68 67 65 65 65 65 65 66 67 68 69 70 70 71 71 71 71 71 70 70 70 69 68 66 65 65 64 64 63 62 61 61 60 60 59 57 55 53 54 54
64 65 65 65 65 64 64 65 65 66 66 66 67 68 67 67 67 67 67 68 71 71 70 69 67 65 65 64 64 65 65 66 67 68 69 71 71 71 71 71 70 70 69 68 67 66 66 65 65 64 63 63 63 61 60 60 60 60 59 58 57 57 55
63 64 65 65 65 65 64 65 65 65 66 66 67 67 68 67 67 67 67 67 70 72 72 71 69 67 65 64 64 65 65 66 67 69 70 71 72 72 72 71 70 69 68 68 67 66 66 65 65 64 64 63 62 61 60 60 60 60 59 59 59 59 58
62 64 65 66 65 65 64 65 65 65 66 66 66 67 68 68 67 67 68 69 71 72 72 71 70 70 69 68 68 68 69 70 70 71 71 72 72 71 70 70 69 68 67 67 67 66 66 65 64 64 64 64 62 61 60 60 60 60 59 59 60 59 59
62 63 65 65 65 64 64 64 65 65 66 66 67 67 67 67 67 67 67 68 70 69 69 69 68 69 69 70 70 70 70 70 70 70 70 70 69 68 69 69 68 68 68 68 68 67 66 65 65 65 65 64 62 61 60 60 60 60 57 60 56 58 60
61 62 64 65 65 64 64 65 65 65 65 65 66 67 67 67 67 67 68 67 67 67 67 66 67 68 69 69 70 70 69 70 70 70 69 68 65 62 57 52 49 57 67 66 62 61 59 59 65 65 64 63 63 63 62 61 61 55 51 50 49 50 52
60 61 63 64 65 65 65 65 65 65 65 65 66 66 67 67 67 67 67 67 67 67 67 67 67 67 68 68 69 68 69 69 69 69 68 66 65 64 61 57 53 44 45 56 58 56 53 54 54 55 58 63 62 59 54 53 51 49 48 47 47 48 48
59 60 62 63 64 64 65 65 65 65 65 65 66 66 66 66 67 66 66 66 66 66 65 65 66 66 66 67 67 67 67 69 68 68 66 65 65 64 61 60 58 53 46 44 50 51 50 50 50 51 52 55 58 58 57 51 48 48 47 47 46 46 46